| time (UTC) | temp C | wind direction | speed KPH | gust KPH | rain 1hr cm | rain 24hr cm | rain mn cm | humidity % | barometer mb |
| 20260506082305 | 23 | 24 | 1.6 | 3.2 | 0.00 | 0.00 | 0.00 | 76 | 1014.3 |
| 20260506081806 | 23 | 24 | 1.6 | 3.2 | 0.00 | 0.00 | 0.00 | 76 | 1014.3 |
| 20260506081304 | 23 | 24 | 1.6 | 3.2 | 0.00 | 0.00 | 0.00 | 76 | 1014.2 |
| 20260506080804 | 23 | 24 | 1.6 | 3.2 | 0.00 | 0.00 | 0.00 | 76 | 1014.2 |
| 20260506080305 | 23 | 24 | 1.6 | 4.8 | 0.00 | 0.00 | 0.00 | 75 | 1014.2 |
| 20260506073304 | 25 | 3 | 0.0 | 0.0 | 0.00 | 0.00 | 0.00 | 72 | 1013.8 |
| 20260506072804 | 25 | 3 | 0.0 | 0.0 | 0.00 | 0.00 | 0.00 | 72 | 1013.7 |
| 20260506072306 | 25 | 3 | 1.6 | 8.0 | 0.00 | 0.00 | 0.00 | 72 | 1013.5 |
| 20260506071804 | 25 | 26 | 8.0 | 8.0 | 0.00 | 0.00 | 0.00 | 72 | 1013.4 |
| 20260506071305 | 25 | 26 | 8.0 | 11.3 | 0.00 | 0.00 | 0.00 | 72 | 1013.4 |
| 20260506070805 | 25 | 54 | 6.4 | 9.7 | 0.00 | 0.00 | 0.00 | 72 | 1013.3 |
| 20260506070304 | 26 | 3 | 0.0 | 0.0 | 0.00 | 0.00 | 0.00 | 68 | 1013.3 |
| 20260506062305 | 26 | 38 | 4.8 | 9.7 | 0.00 | 0.00 | 0.00 | 68 | 1012.9 |
| 20260506061806 | 26 | 29 | 6.4 | 12.9 | 0.00 | 0.00 | 0.00 | 68 | 1012.9 |
| 20260506061306 | 26 | 58 | 8.0 | 14.5 | 0.00 | 0.00 | 0.00 | 68 | 1012.8 |
| 20260506060804 | 26 | 63 | 8.0 | 16.1 | 0.00 | 0.00 | 0.00 | 68 | 1012.7 |
| 20260506051304 | 26 | 47 | 8.0 | 12.9 | 0.00 | 0.00 | 0.00 | 68 | 1012.8 |
| 20260506050305 | 25 | 44 | 4.8 | 11.3 | 0.00 | 0.00 | 0.00 | 68 | 1012.8 |
| 20260506044804 | 26 | 60 | 4.8 | 8.0 | 0.00 | 0.00 | 0.00 | 67 | 1013.0 |
| 20260506044305 | 26 | 62 | 6.4 | 9.7 | 0.00 | 0.00 | 0.00 | 67 | 1013.0 |
| 20260506043805 | 26 | 77 | 1.6 | 12.9 | 0.00 | 0.00 | 0.00 | 63 | 1013.0 |
| 20260506043304 | 26 | 2 | 0.0 | 0.0 | 0.00 | 0.00 | 0.00 | 63 | 1013.0 |
| 20260506042804 | 26 | 5 | 1.6 | 4.8 | 0.00 | 0.00 | 0.00 | 63 | 1013.0 |
| 20260506042305 | 26 | 90 | 4.8 | 4.8 | 0.00 | 0.00 | 0.00 | 63 | 1013.0 |
| 20260506041804 | 26 | 90 | 6.4 | 11.3 | 0.00 | 0.00 | 0.00 | 63 | 1013.0 |
| 20260506041305 | 26 | 3 | 0.0 | 0.0 | 0.00 | 0.00 | 0.00 | 63 | 1013.1 |
| 20260506040805 | 26 | 3 | 0.0 | 0.0 | 0.00 | 0.00 | 0.00 | 63 | 1013.0 |
| 20260506040305 | 26 | 3 | 0.0 | 0.0 | 0.00 | 0.00 | 0.00 | 63 | 1013.0 |
| 20260506035804 | 26 | 3 | 0.0 | 0.0 | 0.00 | 0.00 | 0.00 | 63 | 1013.0 |
| 20260506035306 | 26 | 3 | 0.0 | 0.0 | 0.00 | 0.00 | 0.00 | 63 | 1013.1 |
| 20260506034804 | 26 | 3 | 0.0 | 0.0 | 0.00 | 0.00 | 0.00 | 63 | 1013.0 |
| 20260506034304 | 26 | 5 | 0.0 | 1.6 | 0.00 | 0.00 | 0.00 | 63 | 1013.0 |
| 20260506033804 | 26 | 88 | 1.6 | 1.6 | 0.00 | 0.00 | 0.00 | 63 | 1013.0 |
| 20260506033305 | 26 | 88 | 1.6 | 4.8 | 0.00 | 0.00 | 0.00 | 63 | 1013.1 |
| 20260506032804 | 26 | 88 | 4.8 | 8.0 | 0.00 | 0.00 | 0.00 | 64 | 1013.2 |
| 20260506031804 | 26 | 76 | 3.2 | 14.5 | 0.00 | 0.00 | 0.00 | 63 | 1013.4 |
| 20260506031304 | 26 | 78 | 8.0 | 16.1 | 0.00 | 0.00 | 0.00 | 63 | 1013.4 |
| 20260506030804 | 26 | 112 | 9.7 | 12.9 | 0.00 | 0.00 | 0.00 | 63 | 1013.4 |
| 20260506030306 | 27 | 96 | 9.7 | 9.7 | 0.00 | 0.00 | 0.00 | 61 | 1013.4 |
| 20260506025306 | 27 | 124 | 1.6 | 8.0 | 0.00 | 0.00 | 0.00 | 61 | 1013.5 |
| 20260506024804 | 26 | 138 | 4.8 | 11.3 | 0.00 | 0.00 | 0.00 | 61 | 1013.7 |
| 20260506023805 | 26 | 135 | 9.7 | 14.5 | 0.00 | 0.00 | 0.00 | 61 | 1013.9 |
| 20260506023305 | 27 | 115 | 12.9 | 24.1 | 0.00 | 0.00 | 0.00 | 63 | 1013.9 |
| 20260506022804 | 26 | 60 | 4.8 | 14.5 | 0.00 | 0.00 | 0.00 | 63 | 1013.9 |
| 20260506022306 | 26 | 96 | 8.0 | 14.5 | 0.00 | 0.00 | 0.00 | 63 | 1014.0 |
| 20260506021304 | 26 | 3 | 0.0 | 12.9 | 0.00 | 0.00 | 0.00 | 62 | 1014.3 |
| 20260506020805 | 26 | 92 | 12.9 | 12.9 | 0.00 | 0.00 | 0.00 | 62 | 1014.3 |
| 20260506020304 | 26 | 92 | 12.9 | 14.5 | 0.00 | 0.00 | 0.00 | 62 | 1014.4 |
| 20260506015804 | 26 | 82 | 4.8 | 14.5 | 0.00 | 0.00 | 0.00 | 61 | 1014.4 |
| 20260506015306 | 26 | 96 | 11.3 | 19.3 | 0.00 | 0.00 | 0.00 | 61 | 1014.6 |
| 20260506014805 | 26 | 132 | 6.4 | 12.9 | 0.00 | 0.00 | 0.00 | 61 | 1014.6 |
| 20260506014305 | 27 | 115 | 11.3 | 12.9 | 0.00 | 0.00 | 0.00 | 61 | 1014.7 |
| 20260506013804 | 27 | 106 | 9.7 | 11.3 | 0.00 | 0.00 | 0.00 | 61 | 1014.9 |
| 20260506013306 | 27 | 130 | 6.4 | 9.7 | 0.00 | 0.00 | 0.00 | 61 | 1015.0 |
| 20260506012804 | 27 | 151 | 4.8 | 14.5 | 0.00 | 0.00 | 0.00 | 61 | 1015.1 |
| 20260506012307 | 26 | 74 | 6.4 | 9.7 | 0.00 | 0.00 | 0.00 | 63 | 1015.1 |
| 20260506011304 | 26 | 63 | 4.8 | 14.5 | 0.00 | 0.00 | 0.00 | 63 | 1015.3 |
| 20260506010805 | 26 | 32 | 1.6 | 12.9 | 0.00 | 0.00 | 0.00 | 63 | 1015.3 |
| 20260506010305 | 26 | 90 | 6.4 | 16.1 | 0.00 | 0.00 | 0.00 | 63 | 1015.4 |
| 20260506005805 | 26 | 79 | 9.7 | 19.3 | 0.00 | 0.00 | 0.00 | 63 | 1015.5 |
| 20260506004805 | 26 | 80 | 4.8 | 16.1 | 0.00 | 0.00 | 0.00 | 64 | 1015.8 |
| 20260506004304 | 26 | 82 | 14.5 | 19.3 | 0.00 | 0.00 | 0.00 | 65 | 1015.8 |
| 20260506003306 | 25 | 47 | 8.0 | 14.5 | 0.00 | 0.00 | 0.00 | 66 | 1015.8 |
| 20260506002805 | 25 | 129 | 4.8 | 14.5 | 0.00 | 0.00 | 0.00 | 67 | 1015.8 |
| 20260506002306 | 25 | 91 | 11.3 | 19.3 | 0.00 | 0.00 | 0.00 | 67 | 1015.9 |
| 20260506001805 | 25 | 36 | 4.8 | 14.5 | 0.00 | 0.00 | 0.00 | 69 | 1016.0 |
| 20260506001304 | 25 | 71 | 3.2 | 14.5 | 0.00 | 0.00 | 0.00 | 68 | 1016.0 |
| 20260506000805 | 25 | 70 | 8.0 | 16.1 | 0.00 | 0.00 | 0.00 | 69 | 1016.1 |
| 20260506000305 | 25 | 58 | 8.0 | 14.5 | 0.00 | 0.00 | 0.00 | 69 | 1016.2 |
| 20260505235804 | 25 | 47 | 3.2 | 8.0 | 0.00 | 0.00 | 0.00 | 70 | 1016.2 |
| 20260505235305 | 24 | 3 | 0.0 | 0.0 | 0.00 | 0.00 | 0.00 | 70 | 1016.2 |
| 20260505234304 | 24 | 3 | 0.0 | 1.6 | 0.00 | 0.00 | 0.00 | 70 | 1016.2 |
| 20260505233804 | 24 | 61 | 1.6 | 1.6 | 0.00 | 0.00 | 0.00 | 70 | 1016.2 |
| 20260505233304 | 24 | 61 | 1.6 | 4.8 | 0.00 | 0.00 | 0.00 | 70 | 1016.0 |
| 20260505232805 | 23 | 63 | 4.8 | 4.8 | 0.00 | 0.00 | 0.00 | 70 | 1016.0 |
| 20260505232305 | 23 | 64 | 3.2 | 8.0 | 0.00 | 0.00 | 0.00 | 70 | 1016.0 |
| 20260505231805 | 23 | 66 | 3.2 | 8.0 | 0.00 | 0.00 | 0.00 | 71 | 1016.0 |
| 20260505231304 | 23 | 63 | 4.8 | 8.0 | 0.00 | 0.00 | 0.00 | 71 | 1016.0 |
| 20260505230818 | 23 | 61 | 3.2 | 4.8 | 0.00 | 0.00 | 0.00 | 71 | 1016.0 |
| 20260505230304 | 23 | 63 | 1.6 | 3.2 | 0.00 | 0.00 | 0.00 | 73 | 1016.0 |
| 20260505225804 | 22 | 3 | 0.0 | 0.0 | 0.00 | 0.00 | 0.00 | 76 | 1015.9 |
| 20260505225306 | 22 | 3 | 0.0 | 0.0 | 0.00 | 0.00 | 0.00 | 76 | 1015.9 |
| 20260505224305 | 22 | 92 | 3.2 | 3.2 | 0.00 | 0.00 | 0.00 | 76 | 1015.9 |
| 20260505223805 | 22 | 92 | 3.2 | 4.8 | 0.00 | 0.00 | 0.00 | 76 | 1015.9 |
| 20260505223304 | 22 | 93 | 6.4 | 9.7 | 0.00 | 0.00 | 0.00 | 76 | 1015.8 |
| 20260505222804 | 21 | 89 | 4.8 | 11.3 | 0.00 | 0.00 | 0.00 | 77 | 1015.8 |
| 20260505222306 | 21 | 85 | 8.0 | 12.9 | 0.00 | 0.00 | 0.00 | 77 | 1015.8 |
| 20260505221305 | 21 | 107 | 6.4 | 11.3 | 0.00 | 0.00 | 0.00 | 78 | 1015.7 |
| 20260505220805 | 21 | 106 | 6.4 | 12.9 | 0.00 | 0.00 | 0.00 | 78 | 1015.7 |
| 20260505220304 | 21 | 105 | 8.0 | 12.9 | 0.00 | 0.00 | 0.00 | 80 | 1015.7 |
| 20260505215305 | 19 | 17 | 1.6 | 9.7 | 0.00 | 0.00 | 0.00 | 80 | 1015.6 |
| 20260505214804 | 19 | 144 | 9.7 | 9.7 | 0.00 | 0.00 | 0.00 | 80 | 1015.6 |
| 20260505214305 | 19 | 144 | 9.7 | 11.3 | 0.00 | 0.00 | 0.00 | 80 | 1015.6 |
| 20260505213805 | 19 | 113 | 8.0 | 14.5 | 0.00 | 0.00 | 0.00 | 81 | 1015.5 |
| 20260505212804 | 18 | 93 | 4.8 | 14.5 | 0.00 | 0.00 | 0.00 | 82 | 1015.4 |
| 20260505212305 | 18 | 124 | 8.0 | 12.9 | 0.00 | 0.00 | 0.00 | 83 | 1015.4 |
| 20260505211805 | 18 | 108 | 6.4 | 11.3 | 0.00 | 0.00 | 0.00 | 83 | 1015.3 |
| 20260505211304 | 17 | 135 | 4.8 | 14.5 | 0.00 | 0.00 | 0.00 | 83 | 1015.3 |
| 20260505210804 | 17 | 122 | 6.4 | 11.3 | 0.00 | 0.00 | 0.00 | 83 | 1015.1 |
| 20260505210305 | 17 | 112 | 4.8 | 9.7 | 0.00 | 0.00 | 0.00 | 83 | 1015.1 |
| 20260505205804 | 17 | 117 | 4.8 | 9.7 | 0.00 | 0.00 | 0.00 | 83 | 1015.1 |
| 20260505204805 | 17 | 121 | 3.2 | 8.0 | 0.00 | 0.00 | 0.00 | 82 | 1014.9 |
| 20260505204304 | 17 | 112 | 3.2 | 11.3 | 0.00 | 0.00 | 0.00 | 82 | 1014.9 |
| 20260505203805 | 17 | 113 | 4.8 | 11.3 | 0.00 | 0.00 | 0.00 | 82 | 1014.9 |
| 20260505202805 | 17 | 102 | 4.8 | 12.9 | 0.00 | 0.00 | 0.00 | 82 | 1014.8 |
| 20260505202307 | 17 | 117 | 4.8 | 11.3 | 0.00 | 0.00 | 0.00 | 82 | 1014.8 |
| 20260505201804 | 17 | 113 | 8.0 | 12.9 | 0.00 | 0.00 | 0.00 | 82 | 1014.8 |
| 20260505201305 | 17 | 107 | 8.0 | 14.5 | 0.00 | 0.00 | 0.00 | 81 | 1014.8 |
| 20260505200305 | 17 | 118 | 8.0 | 14.5 | 0.00 | 0.00 | 0.00 | 81 | 1014.8 |
| 20260505195805 | 17 | 104 | 6.4 | 12.9 | 0.00 | 0.00 | 0.00 | 81 | 1014.9 |
| 20260505195305 | 17 | 115 | 4.8 | 19.3 | 0.00 | 0.00 | 0.00 | 81 | 1014.8 |
| 20260505194806 | 17 | 99 | 4.8 | 16.1 | 0.00 | 0.00 | 0.00 | 81 | 1014.8 |
| 20260505194304 | 17 | 137 | 9.7 | 20.9 | 0.00 | 0.00 | 0.00 | 81 | 1014.7 |
| 20260505193804 | 17 | 121 | 6.4 | 14.5 | 0.00 | 0.00 | 0.00 | 81 | 1014.7 |
| 20260505193304 | 17 | 136 | 9.7 | 19.3 | 0.00 | 0.00 | 0.00 | 80 | 1014.6 |
| 20260505192805 | 17 | 141 | 9.7 | 14.5 | 0.00 | 0.00 | 0.00 | 80 | 1014.7 |
| 20260505192306 | 17 | 160 | 8.0 | 16.1 | 0.00 | 0.00 | 0.00 | 80 | 1014.6 |
| 20260505191805 | 17 | 150 | 9.7 | 20.9 | 0.00 | 0.00 | 0.00 | 79 | 1014.6 |
| 20260505190806 | 17 | 144 | 8.0 | 14.5 | 0.00 | 0.00 | 0.00 | 80 | 1014.5 |
| 20260505190304 | 17 | 142 | 9.7 | 19.3 | 0.00 | 0.00 | 0.00 | 80 | 1014.5 |
| 20260505185805 | 16 | 150 | 9.7 | 14.5 | 0.00 | 0.00 | 0.00 | 79 | 1014.4 |
| 20260505185305 | 16 | 138 | 6.4 | 16.1 | 0.00 | 0.00 | 0.00 | 79 | 1014.4 |
| 20260505184804 | 16 | 139 | 8.0 | 14.5 | 0.00 | 0.00 | 0.00 | 79 | 1014.4 |
| 20260505183804 | 16 | 141 | 4.8 | 11.3 | 0.00 | 0.00 | 0.00 | 79 | 1014.3 |
| 20260505182804 | 16 | 133 | 3.2 | 11.3 | 0.00 | 0.00 | 0.00 | 78 | 1014.3 |
| 20260505181806 | 16 | 138 | 4.8 | 8.0 | 0.00 | 0.00 | 0.00 | 78 | 1014.3 |
| 20260505181304 | 16 | 146 | 4.8 | 11.3 | 0.00 | 0.00 | 0.00 | 78 | 1014.3 |
| 20260505180305 | 16 | 153 | 4.8 | 12.9 | 0.00 | 0.00 | 0.00 | 77 | 1014.2 |
| 20260505175804 | 16 | 156 | 4.8 | 9.7 | 0.00 | 0.00 | 0.00 | 77 | 1014.2 |
| 20260505175305 | 16 | 144 | 3.2 | 9.7 | 0.00 | 0.00 | 0.00 | 77 | 1014.2 |
| 20260505174805 | 16 | 153 | 4.8 | 8.0 | 0.00 | 0.00 | 0.00 | 77 | 1014.2 |
| 20260505174305 | 16 | 150 | 4.8 | 9.7 | 0.00 | 0.00 | 0.00 | 76 | 1014.2 |
| 20260505173805 | 16 | 159 | 4.8 | 9.7 | 0.00 | 0.00 | 0.00 | 76 | 1014.2 |
| 20260505173304 | 16 | 161 | 8.0 | 11.3 | 0.00 | 0.00 | 0.00 | 76 | 1014.2 |
| 20260505172806 | 16 | 155 | 4.8 | 11.3 | 0.00 | 0.00 | 0.00 | 75 | 1014.1 |
| 20260505172306 | 17 | 153 | 3.2 | 8.0 | 0.00 | 0.00 | 0.00 | 75 | 1014.1 |
| 20260505171805 | 17 | 153 | 4.8 | 9.7 | 0.00 | 0.00 | 0.00 | 75 | 1014.2 |
| 20260505171304 | 17 | 157 | 4.8 | 12.9 | 0.00 | 0.00 | 0.00 | 74 | 1014.1 |
| 20260505170806 | 17 | 160 | 8.0 | 11.3 | 0.00 | 0.00 | 0.00 | 74 | 1014.1 |
| 20260505170306 | 17 | 158 | 6.4 | 14.5 | 0.00 | 0.00 | 0.00 | 74 | 1014.2 |
| 20260505165306 | 17 | 138 | 4.8 | 11.3 | 0.00 | 0.00 | 0.00 | 74 | 1014.3 |
| 20260505164804 | 17 | 150 | 4.8 | 11.3 | 0.00 | 0.00 | 0.00 | 73 | 1014.3 |
| 20260505163805 | 17 | 121 | 1.6 | 4.8 | 0.00 | 0.00 | 0.00 | 73 | 1014.5 |
| 20260505163306 | 17 | 121 | 1.6 | 4.8 | 0.00 | 0.00 | 0.00 | 73 | 1014.6 |
| 20260505162804 | 17 | 121 | 1.6 | 4.8 | 0.00 | 0.00 | 0.00 | 74 | 1014.7 |
| 20260505161805 | 17 | 117 | 4.8 | 11.3 | 0.00 | 0.00 | 0.00 | 75 | 1014.7 |
| 20260505161304 | 17 | 125 | 4.8 | 14.5 | 0.00 | 0.00 | 0.00 | 75 | 1014.9 |
| 20260505160804 | 16 | 147 | 4.8 | 11.3 | 0.00 | 0.00 | 0.00 | 76 | 1014.9 |
| 20260505160304 | 16 | 159 | 8.0 | 9.7 | 0.00 | 0.00 | 0.00 | 76 | 1014.9 |
| 20260505153306 | 17 | 159 | 3.2 | 4.8 | 0.00 | 0.00 | 0.00 | 76 | 1015.0 |
| 20260505152305 | 17 | 159 | 3.2 | 4.8 | 0.00 | 0.00 | 0.00 | 75 | 1015.1 |
| 20260505151806 | 17 | 159 | 1.6 | 3.2 | 0.00 | 0.00 | 0.00 | 75 | 1015.1 |
| 20260505151304 | 17 | 159 | 3.2 | 3.2 | 0.00 | 0.00 | 0.00 | 75 | 1015.1 |
| 20260505150805 | 17 | 159 | 3.2 | 8.0 | 0.00 | 0.00 | 0.00 | 75 | 1015.2 |
| 20260505140304 | 17 | 170 | 8.0 | 14.5 | 0.00 | 0.03 | 0.00 | 75 | 1015.9 |
| 20260505130306 | 18 | 148 | 4.8 | 11.3 | 0.00 | 0.03 | 0.00 | 77 | 1016.5 |
| 20260505124804 | 18 | 110 | 4.8 | 11.3 | 0.00 | 0.03 | 0.00 | 78 | 1016.5 |
| 20260505124304 | 18 | 119 | 3.2 | 4.8 | 0.00 | 0.03 | 0.00 | 78 | 1016.5 |
| 20260505123804 | 18 | 123 | 1.6 | 11.3 | 0.00 | 0.03 | 0.00 | 79 | 1016.5 |
| 20260505123305 | 18 | 121 | 3.2 | 4.8 | 0.00 | 0.03 | 0.00 | 79 | 1016.5 |
| 20260505122804 | 18 | 120 | 3.2 | 4.8 | 0.00 | 0.03 | 0.00 | 79 | 1016.4 |
| 20260505122305 | 18 | 121 | 3.2 | 8.0 | 0.00 | 0.03 | 0.00 | 80 | 1016.4 |
| 20260505121805 | 18 | 123 | 8.0 | 12.9 | 0.00 | 0.03 | 0.00 | 80 | 1016.4 |
| 20260505121304 | 18 | 130 | 4.8 | 11.3 | 0.00 | 0.03 | 0.00 | 80 | 1016.4 |
| 20260505120805 | 18 | 132 | 4.8 | 8.0 | 0.00 | 0.03 | 0.00 | 81 | 1016.4 |
| 20260505120305 | 18 | 110 | 4.8 | 9.7 | 0.00 | 0.03 | 0.00 | 81 | 1016.5 |
| 20260505115805 | 18 | 119 | 4.8 | 8.0 | 0.00 | 0.03 | 0.00 | 81 | 1016.4 |
| 20260505115305 | 18 | 115 | 3.2 | 4.8 | 0.00 | 0.03 | 0.00 | 81 | 1016.5 |
| 20260505114804 | 18 | 117 | 4.8 | 9.7 | 0.00 | 0.03 | 0.00 | 81 | 1016.4 |
| 20260505114304 | 18 | 132 | 3.2 | 11.3 | 0.00 | 0.03 | 0.00 | 81 | 1016.5 |
| 20260505113804 | 18 | 137 | 4.8 | 11.3 | 0.00 | 0.03 | 0.00 | 81 | 1016.5 |
| 20260505113304 | 19 | 135 | 4.8 | 11.3 | 0.00 | 0.03 | 0.00 | 81 | 1016.5 |
| 20260505112805 | 19 | 153 | 4.8 | 12.9 | 0.00 | 0.03 | 0.00 | 81 | 1016.5 |
| 20260505112305 | 19 | 135 | 3.2 | 11.3 | 0.00 | 0.03 | 0.00 | 81 | 1016.5 |
| 20260505111804 | 19 | 132 | 3.2 | 8.0 | 0.00 | 0.03 | 0.00 | 81 | 1016.5 |
| 20260505111304 | 19 | 132 | 4.8 | 12.9 | 0.00 | 0.03 | 0.00 | 81 | 1016.5 |
| 20260505110804 | 19 | 127 | 6.4 | 19.3 | 0.00 | 0.03 | 0.00 | 81 | 1016.6 |
| 20260505110304 | 20 | 137 | 4.8 | 14.5 | 0.00 | 0.03 | 0.00 | 81 | 1016.6 |
| 20260505101804 | 20 | 149 | 8.0 | 11.3 | 0.00 | 0.03 | 0.00 | 79 | 1016.4 |
| 20260505101304 | 20 | 141 | 4.8 | 12.9 | 0.00 | 0.03 | 0.00 | 79 | 1016.4 |
| 20260505100805 | 20 | 155 | 3.2 | 9.7 | 0.00 | 0.03 | 0.00 | 79 | 1016.4 |
| 20260505100304 | 20 | 151 | 3.2 | 8.0 | 0.00 | 0.03 | 0.00 | 78 | 1016.4 |
| 20260505095804 | 21 | 157 | 3.2 | 11.3 | 0.00 | 0.03 | 0.00 | 78 | 1016.3 |
| 20260505095305 | 21 | 156 | 1.6 | 3.2 | 0.00 | 0.03 | 0.00 | 78 | 1016.2 |
| 20260505094804 | 21 | 155 | 3.2 | 11.3 | 0.00 | 0.03 | 0.00 | 78 | 1016.2 |
| 20260505094305 | 21 | 126 | 3.2 | 4.8 | 0.00 | 0.03 | 0.00 | 77 | 1016.1 |
| 20260505093804 | 21 | 124 | 1.6 | 8.0 | 0.00 | 0.03 | 0.00 | 77 | 1016.0 |
| 20260505093305 | 21 | 128 | 6.4 | 11.3 | 0.00 | 0.03 | 0.00 | 77 | 1015.9 |
| 20260505092805 | 21 | 124 | 4.8 | 11.3 | 0.00 | 0.03 | 0.00 | 77 | 1015.9 |
| 20260505092305 | 21 | 110 | 4.8 | 9.7 | 0.00 | 0.03 | 0.00 | 76 | 1015.8 |
| 20260505091804 | 21 | 107 | 4.8 | 9.7 | 0.00 | 0.03 | 0.00 | 75 | 1015.7 |
| 20260505091305 | 21 | 101 | 4.8 | 11.3 | 0.00 | 0.03 | 0.00 | 75 | 1015.7 |
| 20260505090805 | 21 | 111 | 1.6 | 4.8 | 0.00 | 0.03 | 0.00 | 75 | 1015.6 |
| 20260505090304 | 21 | 111 | 3.2 | 9.7 | 0.00 | 0.03 | 0.00 | 74 | 1015.5 |
| 20260505085804 | 22 | 110 | 3.2 | 4.8 | 0.00 | 0.03 | 0.00 | 74 | 1015.4 |
| 20260505085305 | 22 | 111 | 4.8 | 12.9 | 0.00 | 0.03 | 0.00 | 74 | 1015.3 |
| 20260505084805 | 22 | 111 | 4.8 | 11.3 | 0.00 | 0.03 | 0.00 | 73 | 1015.2 |
| 20260505084304 | 22 | 113 | 4.8 | 11.3 | 0.00 | 0.03 | 0.00 | 73 | 1015.1 |
| 20260505083804 | 22 | 114 | 3.2 | 9.7 | 0.00 | 0.03 | 0.00 | 72 | 1015.0 |
| 20260505083305 | 22 | 113 | 4.8 | 9.7 | 0.00 | 0.03 | 0.00 | 72 | 1014.9 |